Flag for Poland Weather past 2 weeks in Zielona Góra, Poland

Now
67 °F

Partly sunny.


Feels Like: 67 °F
Forecast: 50 / 64 °F
Wind: 3 mph from West

Location: Zielona Gora

Current Time: Sep 4, 2015 at 5:40:53 PM

Latest Report: Sep 4, 2015 at 4:00 PM


Visibility: 31 mi

Pressure: 29.91 "Hg

Humidity: 46%

Dew point: 45 °F

Location of Zielona GóraLocation

Historic Weather in Zielona Góra — Graph

°F

Zielona Góra temperature yesterday

Maximum temperature yesterday: 71 °F (at 2:00 PM)
Minimum temperature yesterday: 55 °F (at 6:00 AM)
Average temperature yesterday: 61 °F

Past Weeks' High & Low Weather Summary

 TemperatureHumidityPressure
High95 °F (Aug 31, 3:00 PM)98% (Aug 25, 8:00 AM)30.32 "Hg (Aug 25, 8:00 AM)
Low53 °F (Aug 26, 6:00 AM)24% (Aug 20, 3:00 PM)29.66 "Hg (Sep 1, 6:00 PM)
Average69 °F58%30.01 "Hg
* Reported Aug 20 3:00 PM — Sep 4 3:00 PM, Zielona Góra, Weather by CustomWeather, © 2015

Note: Actual official high and low records may vary slightly from our data, if they occured in-between our weather recording intervals... More about our weather records

Advertising

Zielona Góra weather history for previous 24 hours

 ConditionsComfort  
Time TempWeatherWind HumidityBarometerVisibility
3:00 PM
Fri, Sep 4
66 °FScattered clouds.5 mph47%29.93 "Hg31 mi
2:00 PM65 °FScattered clouds.3 mph49%29.94 "Hg31 mi
1:00 PM65 °FScattered clouds.3 mph58%29.95 "Hg25 mi
12:00 PM63 °FScattered clouds.2 mph68%29.95 "Hg19 mi
11:00 AM59 °FFog.2 mph81%29.95 "Hg3 mi
10:00 AM57 °FFog.2 mph91%29.95 "Hg2 mi
9:00 AM56 °FFog.2 mph95%29.94 "Hg2 mi
8:00 AM55 °FFog.2 mph95%29.94 "Hg2 mi
7:00 AM54 °FFog.3 mph94%29.93 "Hg4 mi
6:00 AM55 °FLow clouds.2 mph95%29.93 "Hg6 mi
5:00 AM55 °FLow clouds.2 mph93%29.93 "Hg7 mi
4:00 AM55 °FLow clouds.2 mph93%29.93 "Hg9 mi
3:00 AM56 °FLow clouds.2 mph93%29.93 "Hg12 mi
2:00 AM56 °FLow clouds.2 mph91%29.94 "Hg12 mi
1:00 AM56 °FSprinkles. Overcast.2 mph90%29.94 "Hg16 mi
12:00 AM56 °FOvercast.2 mph88%29.94 "Hg19 mi
10:00 PM
Thu, Sep 3
58 °FOvercast.3 mph84%29.95 "Hg25 mi
9:00 PM60 °FOvercast.5 mph77%29.94 "Hg25 mi
8:00 PM61 °FOvercast.3 mph77%29.93 "Hg25 mi
7:00 PM62 °FOvercast.3 mph68%29.92 "Hg31 mi
6:00 PM64 °FOvercast.2 mph67%29.92 "Hg31 mi
5:00 PM63 °FOvercast.3 mph70%29.93 "Hg31 mi
Weather by CustomWeather, © 2015

See weather overviewHow to use our weather pages